Regional Weather Roundup
Issued by NWS Sioux Falls, SD

Home | Current Version | Previous Version | Text Only | Print | Product List | Glossary On
Versions: 1 2 3 4 5 6 7 8 9 10 11 12 13 14 15 16 17 18 19 20 21 22 23 24 25 26 27 28 29 30 31 32 33 34 35 36 37 38 39 40 41 42 43 44 45 46 47 48 49 50
000
ASUS43 KFSD 301510
RWRFSD

WEATHER ROUNDUP FOR SE SOUTH DAKOTA/SW MINNESOTA/NW IOWA
NATIONAL WEATHER SERVICE SIOUX FALLS SD
1000 AM CDT THU OCT 30 2014

NOTE: "FAIR" INDICATES FEW OR NO CLOUDS BELOW 12,000 FEET WITH NO
SIGNIFICANT WEATHER AND OR OBSTRUCTIONS TO VISIBILITY.


SDZ038>040-050-052>070-301600-
SOUTHEAST SOUTH DAKOTA

CITY           SKY/WX    TMP DP  RH WIND       PRES   REMARKS
CHAMBERLAIN    SUNNY     44  37  75 NW24G32   30.17R
HURON          SUNNY     42  37  82 NW18      30.14R
MADISON        FAIR      43  37  81 N14       30.07R
MITCHELL       SUNNY     45  39  79 N22G28    30.13R
SIOUX FALLS    MOSUNNY   49  36  61 N12       30.06R
WINNER         FAIR      46  36  68 NW17      30.21R
YANKTON        SUNNY     46  37  71 NW18G24   30.10R
$$

MNZ071-072-080-081-089-090-097-098-301600-
SOUTHWEST MINNESOTA

CITY           SKY/WX    TMP DP  RH WIND       PRES   REMARKS
FAIRMONT       CLOUDY    45  34  65 SE6       30.03R
JACKSON        CLOUDY    45  34  65 CALM      30.03R
LUVERNE        SUNNY     46  36  66 N14       30.05R
MARSHALL       SUNNY     43  36  75 N10       30.06R
MONTEVIDEO     CLOUDY    39  39 100 NE5       30.09R
PIPESTONE      SUNNY     45  36  70 N13       30.05R
REDWOOD FALLS  CLOUDY    42  38  85 N6        30.06R
TRACY          MOSUNNY   44  38  79 NW9       30.06R
WINDOM         MOSUNNY   45  36  70 SE3       30.02S
WORTHINGTON    MOSUNNY   45  34  65 NW7       30.03R
$$

IAZ001>003-012>014-020>022-031-032-NEZ013-014-SDZ071-301600-
NORTHWEST IOWA

CITY           SKY/WX    TMP DP  RH WIND       PRES   REMARKS
CHEROKEE       MOSUNNY   47  37  68 NW6       30.02S
DENISON        MOSUNNY   45  36  70 SW6       30.01S
ESTHERVILLE    CLOUDY    43  37  79 E5        30.02S
LE MARS        SUNNY     46  37  71 NW12      30.05R
ORANGE CITY    SUNNY     46  37  71 NW15      30.03R
SHELDON        SUNNY     46  36  66 NW12      30.02R
SIOUX CITY     SUNNY     49  37  63 NW12      30.06R
SPENCER        MOSUNNY   46  34  62 W6        30.02R
STORM LAKE     PTSUNNY   45  36  70 W8        30.02R
$$

ABBREVIATIONS USED IN REMARKS
   TC - TEMPERATURE IN CELSIUS
  WCI - WIND CHILL INDEX
   HX - HEAT INDEX
  VSB - VISIBILITY




USA.gov is the U.S. government's official web portal to all federal, state and local government web resources and services.